Flag for U.S.A. Weather past 2 weeks in Evansville, Indiana, U.S.A.

Now
31 °F

Ice fog.


Feels Like: 27 °F
Forecast: 29 / 40 °F
Wind: 3 mph from South

Location: Evansville Regional Airport

Current Time: Jan 26, 2015 at 9:59:33 PM

Latest Report: Jan 26, 2015 at 8:54 PM


Visibility: 5 mi

Pressure: 29.98 "Hg

Humidity: 85%

Dew point: 27 °F

Location of EvansvilleLocation

Historic Weather in Evansville — Graph

°F

Evansville temperature yesterday

Maximum temperature yesterday: 44 °F (at 3:54 AM)
Minimum temperature yesterday: 33 °F (at 11:54 PM)
Average temperature yesterday: 42 °F

Past Weeks' High & Low Weather Summary

 TemperatureHumidityPressure
High56 °F (Jan 20, 1:54 PM)93% (Jan 12, 8:54 AM)30.60 "Hg (Jan 12, 8:54 AM)
Low22 °F (Jan 14, 2:54 AM)38% (Jan 18, 2:54 PM)29.60 "Hg (Jan 25, 1:54 PM)
Average36 °F72%30.13 "Hg
* Reported Jan 11 7:54 PM — Jan 26 7:54 PM, Evansville, Weather by CustomWeather, © 2014

Note: Actual official high and low records may vary slightly from our data, if they occured in-between our weather recording intervals... More about our weather records

Advertising

Evansville weather history for previous 24 hours

 ConditionsComfort  
Time TempWeatherWind HumidityBarometerVisibility
7:54 PM
Jan 26
31 °FMostly cloudy.No wind85%29.98 "Hg7 mi
6:54 PM31 °FMostly cloudy.3 mph85%29.98 "Hg8 mi
5:54 PM31 °FOvercast.No wind82%30.00 "Hg10 mi
4:54 PM30 °FLight snow. Ice fog.3 mph85%29.96 "Hg5 mi
4:01 PM30 °FLight snow. Ice fog.6 mph82%29.95 "Hg1 mi
2:54 PM32 °FLight snow. Mostly cloudy.6 mph66%29.99 "Hg6 mi
1:54 PM32 °FMostly cloudy.9 mph69%29.98 "Hg10 mi
12:54 PM31 °FOvercast.9 mph73%29.98 "Hg10 mi
11:54 AM31 °FOvercast.10 mph76%30.02 "Hg10 mi
10:54 AM32 °FOvercast.6 mph75%30.05 "Hg10 mi
9:54 AM32 °FOvercast.7 mph73%30.05 "Hg10 mi
8:54 AM32 °FOvercast.8 mph75%30.03 "Hg9 mi
8:01 AM32 °FOvercast.5 mph75%30.01 "Hg10 mi
6:54 AM31 °FOvercast.5 mph79%30.00 "Hg10 mi
5:54 AM31 °FOvercast.14 mph79%29.99 "Hg10 mi
4:54 AM31 °FOvercast.10 mph76%29.96 "Hg10 mi
3:54 AM31 °FOvercast.13 mph79%29.95 "Hg10 mi
2:54 AM31 °FOvercast.9 mph76%29.93 "Hg10 mi
2:02 AM31 °FOvercast.14 mph76%29.91 "Hg10 mi
1:54 AM31 °FOvercast.14 mph79%29.92 "Hg10 mi
12:54 AM32 °FOvercast.17 mph82%29.89 "Hg10 mi
11:54 PM
Jan 25
33 °FLow clouds.16 mph82%29.86 "Hg10 mi
10:54 PM34 °FLight snow. Low clouds.18 mph85%29.83 "Hg9 mi
9:54 PM38 °FFog.20 mph90%29.79 "Hg4 mi
Weather by CustomWeather, © 2014

See weather overviewHow to use our weather pages